Regional Weather Roundup
Issued by NWS

Home | Current Version | Previous Version | Graphics & Text | Print | Product List | Glossary On
Versions: 1 2 3 4 5 6 7 8 9 10 11 12 13 14 15 16 17 18 19 20 21 22 23 24 25 26 27 28 29 30 31 32 33 34 35 36 37 38 39 40 41 42 43 44 45 46 47 48 49 50
000
ASUS43 KDMX 040804
RWRIA

WEATHER ROUNDUP FOR IOWA
NATIONAL WEATHER SERVICE DES MOINES IA
  ISSUED BY NWS QUAD CITIES IA IL
200 AM CST WED MAR 04 2015

NOTE: "FAIR" INDICATES FEW OR NO CLOUDS BELOW 12,000 FEET WITH NO
SIGNIFICANT WEATHER AND/OR OBSTRUCTIONS TO VISIBILITY.

* - THESE STATIONS ARE NOT NWS STATIONS...THUS NOT UNDER NWS
QUALITY CONTROL.  THEY ALSO DO NOT REPORT WEATHER SUCH
AS PRECIPITATION OR FOG.

IAZ001>003-012>014-020>022-031>034-043>046-040900-
   NORTHWEST IOWA

CITY           SKY/WX    TMP DP  RH WIND       PRES   REMARKS
CARROLL *      CLOUDY    14   3  62 NW17      30.15R WCI  -3
CHEROKEE *     PTSUNNY   12   3  67 NW7       30.17R WCI   1
DENNISON *     CLOUDY    14   3  62 N10       30.15R WCI   1
LE MARS *      MOCLDY    12   7  79 W5        30.19R WCI   4
ORANGE CITY *  MOCLDY    10   1  67 NW6       30.16R WCI   1
SHELDON *      PTCLDY     7   0  72 NW8       30.14R WCI  -6
SIOUX CITY     CLOUDY    16   5  62 NW8       30.19S WCI   5
SPENCER        PTCLDY     8  -3  61 NW12      30.15R WCI  -7
STORM LAKE *   CLOUDY    10   3  72 NW14      30.14R WCI  -5
$$

IAZ055>058-069>071-079>083-090>094-040900-
   SOUTHWEST IOWA

CITY           SKY/WX    TMP DP  RH WIND       PRES   REMARKS
ATLANTIC *     CLOUDY    16   3  57 N15       30.17R WCI   1
AUDUBON *      MOCLDY    14   3  62 N12G17    30.16R WCI   0
CLARINDA *     CLOUDY    18   7  62 N15       30.20R WCI   3
COUNCIL BLFS * LGT SNOW  16  10  79 N15       30.17R WCI   1
CRESTON *      MOCLDY    14   3  62 N14       30.14R WCI  -1
HARLAN *       CLOUDY    16   7  67 N14G21    30.20R WCI   1
LAMONI         PTCLDY    14   7  73 N12       30.13R WCI   0
RED OAK *      CLOUDY    18   7  62 N17       30.19R WCI   2
SHENANDOAH *   CLOUDY    18   7  62 N13       30.20R WCI   4
$$

IAZ047>049-059>061-072>074-084-040900-
   CENTRAL IOWA

CITY           SKY/WX    TMP DP  RH WIND       PRES   REMARKS
AMES           CLOUDY    13   2  61 N22G30    30.11S WCI  -6
ANKENY *       CLOUDY    14   3  62 NW12G17   30.14R WCI   0
BOONE *        CLOUDY    12   1  62 NW22      30.09R WCI  -7
CHARITON *     CLOUDY    14   7  73 NW15G22   30.12R WCI  -1
DES MOINES     CLOUDY    15   3  59 N9        30.14R WCI   3
GRINNELL *     SUNNY     10   4  75 NW16      30.10R WCI  -7
KNOXVILLE *    CLOUDY    14   7  73 NW15      30.11R WCI  -1
MARSHALLTOWN   CLOUDY    11   2  67 NW17      30.08R WCI  -6
NEWTON *       MOCLDY    12   3  67 N16       30.11S WCI  -4
PELLA *        CLEAR     13   9  81 NW13G18   30.14R WCI  -1
PERRY *          N/A     14   6  68 N15G24    30.14R WCI  -1
$$

IAZ004>006-015-016-023>025-035-036-040900-
   NORTH CENTRAL IOWA

CITY           SKY/WX    TMP DP  RH WIND       PRES   REMARKS
ALGONA *       PTCLDY     9 N/A N/A NW17G26   30.13R WCI -10
CLARION *      PTCLDY    10   3  72 NW22G28   30.10F WCI  -9
ESTHERVILLE    CLEAR      5  -3  69 NW13      30.13R WCI -12
FORT DODGE *   MOCLDY    10   0  61 NW7G20    30.13S WCI   0
MASON CITY     CLEAR      7  -1  70 NW20      30.09R WCI -13
WEBSTER CITY * CLOUDY    12   9  85 NW22      30.09S WCI  -7
IOWA FALLS *   PTSUNNY   10   3  74 NW21      30.09S WCI -10
$$

IAZ007>011-017>019-026>030-037>042-050>054-066-040900-
   NORTHEAST IOWA

CITY           SKY/WX    TMP DP  RH WIND       PRES   REMARKS
CHARLES CITY * MOCLDY     7   0  72 NW18G25   30.07R WCI -12
CLINTON *      CLEAR     10   3  72 NW14      30.03R WCI  -5
DECORAH *      PTCLDY     7   0  72 NW12G21   30.02R WCI  -9
DUBUQUE          N/A    N/A N/A N/A MISG      29.99R
MONTICELLO *   CLEAR     10   1  67 NW16G24   30.03R WCI  -7
OELWEIN *      CLOUDY     9   0  66 NW23      30.04R WCI -12
WATERLOO       PTCLDY    10   1  67 NW17      30.07R WCI  -8
$$

IAZ064-065-067-068-078-040900-
   EAST CENTRAL IOWA

CITY           SKY/WX    TMP DP  RH WIND       PRES   REMARKS
DAVENPORT      CLEAR     13   3  64 NW20      30.03R WCI  -5
IOWA CITY      CLEAR     12   5  73 NW13      30.09R WCI  -3
MT. PLEASANT * PTCLDY    14   6  69 NW17G32   30.07R WCI  -2
MUSCATINE *    CLEAR     16   9  73 NW15G23   30.07R WCI   1
QUAD CITIES    PTCLDY    16   7  67 NW16      30.02R WCI   1
$$

IAZ062-063-075>077-085>089-095>099-040900-
   SOUTHEAST IOWA

CITY           SKY/WX    TMP DP  RH WIND       PRES   REMARKS
BURLINGTON     PTCLDY    16   8  71 NW15G24   30.04R WCI   1
FAIRFIELD *    PTCLDY    14   5  67 NW22      30.09R WCI  -4
FORT MADISON * PTCLDY    16   9  73 NW14      30.06R WCI   1
KEOKUK *       PTCLDY    19  10  68 N18       30.06R WCI   4
OSKALOOSA *    FAIR      13   6  74 NW20      30.12R WCI  -5
CENTERVILLE *  FLURRIES  18  12  79 N16G24    30.11R WCI   3
OTTUMWA        PTCLDY    13   5  70 NW20G29   30.11R WCI  -5
WASHINGTON *   PTCLDY    14   9  79 NW21G30   30.08R WCI  -4
$$

ABBREVIATIONS USED IN REMARKS
   TC - TEMPERATURES IN CELSIUS
  WCI - WIND CHILL INDEX
   HX - HEAT INDEX
  VSB - VISIBILITY
$$


USA.gov is the U.S. government's official web portal to all federal, state and local government web resources and services.